User: anonymous   Login
Location: Trois-Rivi�res
(46.3500°N, 72.5500°W)
Time: 18:39:10
(UTC-04:00)
Language:

Cosmos 1544 - Orbit

View from above orbital plane
View from above orbital plane
View from above satellite
View from above satellite

Ground track
Ground track

The orbit data is extracted from the following two-line orbital elements,

1 14819U 84027A   16242.75410674  .00001731  00000-0  68267-4 0  9998
2 14819  82.4866 320.4437 0014275 351.8019   8.2982 15.24786283771389
Epoch (UTC): 29 August 2016 18:05:54
Eccentricity: 0.0014275
inclination: 82.4866°
perigee height: 481 km
apogee height: 501 km
right ascension of ascending node: 320.4437°
argument of perigee: 351.8019°
revolutions per day: 15.24786283
mean anomaly at epoch: 8.2982°
orbit number at epoch: 77138

The dashed part of the orbit path shows where the satellite is in the earth's shadow,  

DLR